{"data":{"norad_id":53804,"intl_designator":"2022-111AH","name":"STARLINK-4729","alt_names":[],"object_type":"PAYLOAD","status":"ACTIVE","operator":null,"country":"US","launch_date":"2022-09-11","launch_site_code":"AFETR","launch_vehicle":null,"mission":null,"orbit_class":"UNKNOWN","rcs_meters":null,"size_class":null,"mass_kg":null,"dimensions":null,"purposes":["comms"],"wikipedia_slug":null,"has_3d_model":false,"image_url":null,"decayed_at":null,"tle_current":{"epoch":"2026-05-25T02:12:51.009120Z","epoch_age_seconds":77253,"freshness":"FRESH","line1":"1 53804U 22111AH  26145.09225705 -.00000267  00000+0  13158-5 0  9993","line2":"2 53804  53.2132 275.9193 0001119 105.9328 254.1787 15.08839807205420","mean_motion":15.08839807,"eccentricity":0.0001119,"inclination_deg":53.2132,"raan_deg":275.9193,"arg_perigee_deg":105.9328,"mean_anomaly_deg":254.1787,"bstar":1.3158e-6,"rev_number":20542,"period_min":95.437566885455,"perigee_km":538.96986800642,"apogee_km":540.51808976949,"semimajor_km":6917.880978888,"source":"CELESTRAK","updated_at":"2026-05-25T13:38:17.566861Z"}}}